Regional Weather Roundup
Issued by NWS Upton, NY

Current Version | Previous Version | Graphics & Text | Print | Product List | Glossary Off
Versions: 1 2 3 4 5 6 7 8 9 10 11 12 13 14 15 16 17 18 19 20 21 22 23 24 25 26 27 28 29 30 31 32 33 34 35 36 37 38 39 40 41 42 43 44 45 46 47 48 49 50
000 ASUS41 KOKX 281708 RWROKX REGIONAL WEATHER ROUNDUP NATIONAL WEATHER SERVICE NEW YORK NY 100 PM EDT TUE JUL 28 2015 NOTE: "FAIR" INDICATES FEW OR NO CLOUDS BELOW 12,000 FEET WITH NO SIGNIFICANT WEATHER AND/OR OBSTRUCTIONS TO VISIBILITY. NYZ071-072-176-178-NJZ106-104-281800- NEW YORK CITY METRO AREA CITY SKY/WX TMP DP RH WIND PRES REMARKS CENTRAL PARK MOSUNNY 92 60 34 VRB5 29.99F HX 91 LAGUARDIA APRT PTSUNNY 90 57 32 N8 29.96F KENNEDY INTL PTSUNNY 88 67 49 SW9 29.98F HX 91 NEWARK/LIBERTY PTSUNNY 91 63 39 E5 29.96F HX 92 BRNX BOT. GARD N/A 88 66 48 E2 29.99S HX 90 TETERBORO MOSUNNY 91 60 35 VRB5 29.95F HX 90 $$ NYZ177-179-078>081-281800- LONG ISLAND NEW YORK CITY SKY/WX TMP DP RH WIND PRES REMARKS FARMINGDALE MOSUNNY 87 70 56 S12 29.97F HX 92 ISLIP PTSUNNY 87 71 58 SW13 29.95F HX 93 SHIRLEY SUNNY 87 71 58 S12G18 29.97F HX 93 WESTHAMPTON SUNNY 85 71 63 SW12 29.98F HX 90 MONTAUK POINT N/A 85 72 65 W6 29.98F HX 91 $$ NYZ052-065-067-281800- HUDSON VALLEY CITY SKY/WX TMP DP RH WIND PRES REMARKS WHITE PLAINS MOSUNNY 87 65 47 NW3 29.98F NEWBURGH NOT AVBL MONTGOMERY MOSUNNY 89 65 44 NE6 29.99F HX 91 POUGHKEEPSIE SUNNY 89 66 46 VRB3 29.97F HX 91 ALBANY PTSUNNY 89 65 44 NW9 29.97F HX 91 $$ NJZ001-105-106-008-010-013-015-019>022-104-281800- NEW JERSEY CITY SKY/WX TMP DP RH WIND PRES REMARKS NEWARK/LIBERTY PTSUNNY 91 63 39 E5 29.96F HX 92 TETERBORO MOSUNNY 91 60 35 VRB5 29.95F HX 90 CALDWELL PTSUNNY 89 65 44 W8 29.98F HX 91 MORRISTOWN MOSUNNY 91 64 40 S3 29.98F HX 93 SOMERVILLE MOSUNNY 91 64 40 VRB3 29.96F HX 92 SUSSEX MOSUNNY 87 63 44 CALM 30.00F ANDOVER N/A 88 65 46 VRB3 30.01F HX 90 TRENTON SUNNY 86 63 45 CALM 29.98F MILLVILLE PTSUNNY 88 71 57 CALM 29.99F HX 94 ATLANTIC CITY MOSUNNY 86 75 69 SE8 29.99F HX 95 WRIGHTSTOWN PTSUNNY 88 71 57 VRB1 29.95F HX 94 TOMS RIVER MOSUNNY 90 68 48 S6 29.98F HX 93 BELMAR MOSUNNY 88 66 48 W5 29.98F HX 90 $$ PAZ047>061-062-071-281800- EASTERN PENNSYLVANIA CITY SKY/WX TMP DP RH WIND PRES REMARKS PHILADELPHIA MOSUNNY 88 68 51 VRB5 29.99F HX 91 ALLENTOWN SUNNY 88 62 41 CALM 30.00F SCRANTON SUNNY 86 64 47 W6 30.03F $$ CTZ002-004>006-009-010-012-RIZ004-006-007-MAZ004-011-015-281800- SOUTHERN NEW ENGLAND IN CT CITY SKY/WX TMP DP RH WIND PRES REMARKS BRADLEY INTL PTSUNNY 90 65 43 W6 29.94F HX 92 HARTFORD SUNNY 90 64 42 VRB7 29.94F HX 91 DANBURY SUNNY 86 61 42 W8 30.00F WTRBRY/OXFORD MOSUNNY 84 64 51 NW7 30.02F BRIDGEPORT SUNNY 84 72 67 SW10 29.96F MERIDEN SUNNY 91 63 39 W9 29.95F HX 92 NEW HAVEN PTSUNNY 81 71 71 S9 29.96F CHESTER FAIR 86 63 45 NW8 29.98F GROTON MOSUNNY 81 72 74 SW9 29.95F WILLIMANTIC SUNNY 88 65 46 CALM 29.96F HX 90 IN RI CITY SKY/WX TMP DP RH WIND PRES REMARKS PROVIDENCE MOSUNNY 85 71 63 S3 29.95F HX 90 BLOCK ISLAND SUNNY 82 73 74 W9 29.98S WESTERLY SUNNY 83 70 64 SW9 29.96F IN MA CITY SKY/WX TMP DP RH WIND PRES REMARKS BOSTON MOSUNNY 81 70 69 SE9 29.94F WORCESTER MOSUNNY 83 63 50 W6 29.99F WESTFIELD MOSUNNY 89 68 49 NW5 29.95F HX 93 PROVINCETOWN SUNNY 81 68 65 SW7 29.96S NANTUCKET MOSUNNY 79 71 76 SW12 29.97F $$ ANZ330-335-338-340-345-350-353-355-281800- COASTAL MARINE OBSERVATIONS STATION/POSITION TIME SKY/WX TEMP WIND PRES VSBY WAVE AIR SEA DIR/SP/G HT/PER (UTC) (F) (DEG/KT/KT) (MB) (MI) (FT/S) NY HARB ENTRANCE 1650 77 77 190/ 6/ 8 1015.1 2/ 9 4S FIRE IS NOT AVBL 20S FIRE ISLAND 1650 75 73 240/ 8/ 10 1015.2 2/10 GREAT SOUTH BAY 1600 77 80 250/ 12/ 14 N/A 23SW MTP 1650 74 75 250/ 8/ 10 1014.7 2/11 HUDSON CANYON NOT AVBL KINGS POINT 1600 86 69 CALM / 2 1014.6 CENTRAL LI SOUND NOT AVBL EASTERN LI SOUND 1600 73 70 260/ 8/ 8 N/A ROBBINS REEF 1600 80 160/ 9/ 10 1014.3 $$ >>>>>>>>>>>>>>>>>>>>>>>>>>>> KEY <<<<<<<<<<<<<<<<<<<<<<<<<<< > < > SKY/WX - SKY CONDITION/PRESENT WEATHER < > TMP - TEMPERATURE IN FAHRENHEIT < > DP - DEWPOINT IN FAHRENHEIT < > RH - RELATIVE HUMIDITY IN PERCENT < > WIND - DIRECTION AND SPEED IN MPH < > PRES - MEAN SEA LEVEL PRESSURE IN INCHES OF HG < > WCI - WIND CHILL INDEX < > VSB - VISIBILITY IN MILES < > HX - HEAT INDEX < > TC - TEMPERATURE IN CELSIUS < > VRB - VARIABLE WIND DIRECTION < > < >>>>>>>>>>>>>>>>>>>>>>>>>>>> KEY <<<<<<<<<<<<<<<<<<<<<<<<<<<

USA.gov is the U.S. government's official web portal to all federal, state and local government web resources and services.